SRMSAT

Last updated on Thu Oct 30 2025 00:02:31 GMT+0000 (Coordinated Universal Time)

1 37841U 11058D 25302.54716647 .00000510 00000+0 13331-3 0 9999 2 37841 19.9733 15.4091 0011653 185.7554 202.5121 14.11488424725192
UTC large
Height (km)
Speed (km/s)
/
Latitude / Longitude
Inclination (degrees)
Orbital Period (minutes)
Azimuth
Elevation
Range (km)
Doppler Factor

Next 0 passes for location: London (51.5072 / 0.1276)

Sorry there are no passes over London.